EW9766 Weather Reports


Display with metric or nautical units.
time (UTC)temp
F
wind
direction
speed
MPH
gust
MPH
rain 1hr
in
rain 24hr
in
rain mn
in
humidity
%
barometer
mb
20260901161533 56 354 1.0 5.0 0.00 0.00 0.00 79 1012.3
20260901160031 55 40 0.0 3.0 0.00 0.00 0.00 80 1012.2
20260901154608 54 30 2.0 6.0 0.00 0.00 0.00 81 1012.1
20260901150037 48 159 3.0 6.0 0.00 0.00 0.00 84 1012.0
20260901144535 48 180 3.0 4.0 0.00 0.00 0.00 84 1011.9
20260901141536 48 180 3.0 4.0 0.00 0.00 0.00 81 1011.8
20260901140038 48 180 3.0 5.0 0.00 0.00 0.00 81 1011.7
20260901134531 48 179 3.0 5.0 0.00 0.00 0.00 81 1011.5
20260901133034 47 154 4.0 7.0 0.00 0.00 0.00 81 1011.4
20260901131535 46 132 4.0 7.0 0.00 0.00 0.00 80 1011.4
20260901130030 46 157 4.0 6.0 0.00 0.00 0.00 79 1011.3
20260901121538 48 171 3.0 5.0 0.00 0.00 0.00 75 1011.3
20260901120035 49 144 3.0 6.0 0.00 0.00 0.00 73 1011.1
20260901114532 51 137 3.0 8.0 0.00 0.00 0.00 71 1011.2
20260901113111 50 152 5.0 8.0 0.00 0.00 0.00 72 1011.2
20260901111532 49 141 5.0 9.0 0.00 0.00 0.00 73 1011.1
20260901110031 49 139 5.0 7.0 0.00 0.00 0.00 73 1011.2
20260901104641 50 147 2.0 5.0 0.00 0.00 0.00 72 1011.3
20260901103037 50 142 3.0 6.0 0.00 0.00 0.00 69 1011.3
20260901101605 52 153 3.0 6.0 0.00 0.00 0.00 66 1011.3
20260901100030 53 156 5.0 9.0 0.00 0.00 0.00 65 1011.3
20260901093150 52 144 5.0 9.0 0.00 0.00 0.00 68 1011.3
20260901091533 51 142 5.0 8.0 0.00 0.00 0.00 69 1011.3
20260901090032 51 144 5.0 7.0 0.00 0.00 0.00 69 1011.3
20260901084607 51 146 4.0 6.0 0.00 0.00 0.00 68 1011.3
20260901083035 52 139 4.0 7.0 0.00 0.00 0.00 65 1011.5
20260901081537 55 148 4.0 6.0 0.00 0.00 0.00 60 1011.5
20260901080034 56 136 5.0 8.0 0.00 0.00 0.00 56 1011.4
20260901073106 57 154 6.0 11.0 0.00 0.00 0.00 55 1011.3
20260901070107 59 159 6.0 10.0 0.00 0.00 0.00 55 1011.3
20260901064532 59 159 6.0 13.0 0.00 0.00 0.00 55 1011.4
20260901063030 59 154 6.0 11.0 0.00 0.00 0.00 55 1011.6
20260901061536 59 158 6.0 12.0 0.00 0.00 0.00 56 1011.7
20260901060032 59 160 6.0 11.0 0.00 0.00 0.00 58 1011.7
20260901054536 59 168 5.0 11.0 0.00 0.00 0.00 58 1011.8
20260901051532 59 179 6.0 10.0 0.00 0.00 0.00 58 1011.7
20260901050037 60 179 6.0 12.0 0.00 0.00 0.00 58 1011.8
20260901044535 60 161 5.0 9.0 0.00 0.00 0.00 58 1011.8
20260901040031 60 137 6.0 11.0 0.00 0.00 0.00 61 1011.5
20260901034607 59 144 7.0 10.0 0.00 0.00 0.00 65 1011.4
20260901033035 58 163 6.0 9.0 0.00 0.00 0.00 68 1011.2
20260901031532 58 176 6.0 8.0 0.00 0.00 0.00 70 1011.2
20260901030034 59 171 5.0 8.0 0.00 0.00 0.00 70 1011.3
20260901024534 59 168 5.0 7.0 0.00 0.00 0.00 71 1011.1
20260901023106 59 166 5.0 7.0 0.00 0.00 0.00 72 1011.0
20260901020036 60 138 4.0 5.0 0.00 0.00 0.00 72 1011.0
20260901014535 62 162 3.0 4.0 0.00 0.00 0.00 66 1011.0
20260901013031 66 188 2.0 3.0 0.00 0.00 0.00 59 1010.9
20260901011530 68 254 2.0 4.0 0.00 0.00 0.00 57 1011.0
20260901004534 72 250 2.0 6.0 0.00 0.00 0.00 50 1011.1
20260901003037 73 243 2.0 6.0 0.00 0.00 0.00 48 1011.0
20260901001529 74 239 2.0 7.0 0.00 0.00 0.00 46 1011.1
20260901000107 75 245 3.0 9.0 0.00 0.00 0.00 44 1011.3
20260831234605 75 243 2.0 8.0 0.00 0.00 0.00 43 1011.3
20260831233031 76 255 3.0 7.0 0.00 0.00 0.00 44 1011.4
20260831231536 76 254 3.0 7.0 0.00 0.00 0.00 44 1011.6
20260831230037 76 247 3.0 7.0 0.00 0.00 0.00 43 1011.7
20260831224532 76 259 3.0 8.0 0.00 0.00 0.00 42 1011.9
20260831223105 76 268 4.0 12.0 0.00 0.00 0.00 42 1012.0
20260831220032 77 267 4.0 10.0 0.00 0.00 0.00 43 1012.3
20260831214535 77 260 4.0 10.0 0.00 0.00 0.00 43 1012.6
20260831213033 77 256 4.0 9.0 0.00 0.00 0.00 43 1012.7
20260831211532 77 269 4.0 9.0 0.00 0.00 0.00 43 1012.8
20260831210034 77 251 4.0 11.0 0.00 0.00 0.00 44 1012.9
20260831204648 76 254 4.0 10.0 0.00 0.00 0.00 45 1013.0
20260831201537 76 245 4.0 10.0 0.00 0.00 0.00 46 1013.5
20260831200044 76 268 4.0 12.0 0.00 0.00 0.00 47 1013.8
20260831194532 75 256 3.0 9.0 0.00 0.00 0.00 49 1013.9
20260831193104 73 265 3.0 9.0 0.00 0.00 0.00 50 1014.1
20260831191536 73 257 4.0 9.0 0.00 0.00 0.00 52 1014.4
20260831190032 72 249 4.0 8.0 0.00 0.00 0.00 54 1014.6
20260831184530 70 267 3.0 8.0 0.00 0.00 0.00 56 1014.8
20260831181531 68 310 3.0 8.0 0.00 0.00 0.00 58 1015.2
20260831180105 68 311 3.0 8.0 0.00 0.00 0.00 59 1015.4
20260831164536 65 287 2.0 6.0 0.00 0.00 0.00 64 1016.0